User: anonymous   Login
Location: Unspecified
(0.0000°N, 0.0000°E)
Time: 08:13:23
(UTC+00:00)
Language:

Nova 2 - Orbit

View from above orbital plane
View from above orbital plane
View from above satellite
View from above satellite

Ground track
Ground track

The orbit data is extracted from the following two-line orbital elements,

1 19223U 88052A   24113.95281213  .00000139  00000-0  31116-3 0  9990
2 19223  89.9798  79.3238 0029172 221.0808 201.8881 13.22834026730316
Epoch (UTC): 22 April 2024 22:52:02
Eccentricity: 0.0029172
inclination: 89.9798°
perigee height: 1152 km
apogee height: 1196 km
right ascension of ascending node: 79.3238°
argument of perigee: 221.0808°
revolutions per day: 13.22834026
mean anomaly at epoch: 201.8881°
orbit number at epoch: 73031

The dashed part of the orbit path shows where the satellite is in the earth's shadow,  

DLR